• In Latvia
  • List of Countries
  • For 7 days
  • Water Temperature
  • Satellite Maps
  • Weather Map
  • Weather Widgets
  • user-avatar
    Login

    Hourly Weather Djelfa

    Today, 20 October, Friday

    Time Temperature Precipitation Wind Pressure Humidity
    00:00 +11°C° 0 mm 8 mps 663 mmHg 71%
    01:00 +10°C° 0 mm 8 mps 663 mmHg 72%
    02:00 +10°C° 0 mm 8 mps 663 mmHg 72%
    03:00 +9°C° 0 mm 7 mps 662 mmHg 73%
    04:00 +9°C° 0 mm 7 mps 662 mmHg 73%
    05:00 +9°C° 0 mm 7 mps 663 mmHg 73%
    06:00 +9°C° 0 mm 7 mps 663 mmHg 73%
    07:00 +10°C° 0 mm 7 mps 663 mmHg 68%
    08:00 +11°C° 0 mm 8 mps 664 mmHg 63%
    09:00 +11°C° 0 mm 8 mps 665 mmHg 58%
    10:00 +12°C° 0 mm 8 mps 665 mmHg 54%
    11:00 +13°C° 0 mm 9 mps 665 mmHg 51%
    12:00 +15°C° 0 mm 9 mps 665 mmHg 47%
    13:00 +15°C° 0 mm 9 mps 665 mmHg 47%
    14:00 +15°C° 0 mm 8 mps 665 mmHg 46%
    15:00 +15°C° 0 mm 8 mps 665 mmHg 46%
    16:00 +15°C° 0 mm 8 mps 666 mmHg 48%
    17:00 +14°C° 0 mm 7 mps 666 mmHg 51%
    18:00 +14°C° 0 mm 6 mps 666 mmHg 54%
    19:00 +13°C° 0 mm 6 mps 667 mmHg 57%
    20:00 +13°C° 0 mm 6 mps 667 mmHg 60%
    21:00 +13°C° 0 mm 5 mps 667 mmHg 63%
    22:00 +12°C° 0 mm 5 mps 667 mmHg 66%
    23:00 +12°C° 0 mm 4 mps 667 mmHg 68%

    Tomorrow, 21 October, Saturday

    Time Temperature Precipitation Wind Pressure Humidity
    00:00 +11°C° 0 mm 4 mps 667 mmHg 71%
    01:00 +11°C° 0 mm 4 mps 667 mmHg 73%
    02:00 +11°C° 0 mm 3 mps 667 mmHg 75%
    03:00 +10°C° 0 mm 3 mps 667 mmHg 77%
    04:00 +10°C° 0 mm 3 mps 667 mmHg 78%
    05:00 +10°C° 0 mm 3 mps 667 mmHg 80%
    06:00 +9°C° 0 mm 3 mps 667 mmHg 81%
    07:00 +11°C° 0 mm 3 mps 668 mmHg 74%
    08:00 +12°C° 0 mm 3 mps 669 mmHg 66%
    09:00 +14°C° 0 mm 3 mps 669 mmHg 58%
    10:00 +16°C° 0 mm 3 mps 669 mmHg 53%
    11:00 +17°C° 0 mm 3 mps 670 mmHg 48%
    12:00 +18°C° 0 mm 3 mps 670 mmHg 42%
    13:00 +19°C° 0 mm 2 mps 669 mmHg 40%
    14:00 +19°C° 0 mm 2 mps 669 mmHg 39%
    15:00 +19°C° 0 mm 2 mps 669 mmHg 37%
    16:00 +19°C° 0 mm 2 mps 669 mmHg 40%
    17:00 +18°C° 0 mm 2 mps 669 mmHg 43%
    18:00 +17°C° 0 mm 2 mps 669 mmHg 45%
    19:00 +18°C° 0 mm 1 mps 669 mmHg 48%
    20:00 +16°C° 0 mm 1 mps 669 mmHg 50%
    21:00 +16°C° 0 mm 1 mps 670 mmHg 53%
    22:00 +15°C° 0 mm 1 mps 669 mmHg 54%
    23:00 +14°C° 0 mm 0 mps 669 mmHg 56%

    Day after tomorrow, 22 October, Sunday

    Time Temperature Precipitation Wind Pressure Humidity
    00:00 +13°C° 0 mm 0 mps 669 mmHg 57%
    01:00 +13°C° 0 mm 0 mps 669 mmHg 58%
    02:00 +13°C° 0 mm 0 mps 668 mmHg 59%
    03:00 +12°C° 0 mm 0 mps 668 mmHg 60%
    04:00 +12°C° 0 mm 0 mps 668 mmHg 61%
    05:00 +12°C° 0 mm 0 mps 668 mmHg 62%
    06:00 +11°C° 0 mm 0 mps 668 mmHg 63%
    07:00 +14°C° 0 mm 1 mps 669 mmHg 57%
    08:00 +16°C° 0 mm 1 mps 670 mmHg 52%
    09:00 +18°C° 0 mm 1 mps 670 mmHg 46%
    10:00 +19°C° 0 mm 1 mps 670 mmHg 43%
    11:00 +19°C° 0 mm 2 mps 670 mmHg 40%
    12:00 +20°C° 0 mm 2 mps 670 mmHg 37%
    13:00 +21°C° 0 mm 2 mps 670 mmHg 35%
    14:00 +21°C° 0 mm 2 mps 669 mmHg 34%
    15:00 +21°C° 0 mm 3 mps 669 mmHg 32%
    16:00 +20°C° 0 mm 3 mps 669 mmHg 35%
    17:00 +20°C° 0 mm 3 mps 669 mmHg 37%
    18:00 +19°C° 0 mm 3 mps 669 mmHg 40%
    19:00 +18°C° 0 mm 3 mps 669 mmHg 42%
    20:00 +18°C° 0 mm 3 mps 669 mmHg 44%
    21:00 +17°C° 0 mm 2 mps 669 mmHg 46%
    22:00 +16°C° 0 mm 2 mps 669 mmHg 50%
    23:00 +16°C° 0 mm 2 mps 669 mmHg 53%

    23 October, Monday

    Time Temperature Precipitation Wind Pressure Humidity
    00:00 +15°C° 0 mm 2 mps 669 mmHg 57%
    01:00 +15°C° 0 mm 2 mps 668 mmHg 60%
    02:00 +14°C° 0 mm 1 mps 668 mmHg 64%
    03:00 +14°C° 0 mm 1 mps 668 mmHg 67%
    04:00 +13°C° 0 mm 1 mps 668 mmHg 69%
    05:00 +13°C° 0 mm 1 mps 668 mmHg 70%
    06:00 +13°C° 0 mm 1 mps 667 mmHg 72%
    07:00 +14°C° 0 mm 2 mps 668 mmHg 66%
    08:00 +16°C° 0 mm 3 mps 669 mmHg 60%
    09:00 +17°C° 0 mm 3 mps 670 mmHg 53%
    10:00 +18°C° 0 mm 4 mps 670 mmHg 49%
    11:00 +19°C° 0 mm 4 mps 670 mmHg 44%
    12:00 +20°C° 0 mm 4 mps 670 mmHg 40%
    13:00 +20°C° 0 mm 5 mps 669 mmHg 38%
    14:00 +20°C° 0 mm 5 mps 669 mmHg 37%
    15:00 +20°C° 0 mm 5 mps 669 mmHg 36%
    16:00 +19°C° 0 mm 5 mps 669 mmHg 40%
    17:00 +18°C° 0 mm 4 mps 669 mmHg 44%
    18:00 +18°C° 0 mm 4 mps 669 mmHg 48%
    19:00 +17°C° 0 mm 3 mps 669 mmHg 53%
    20:00 +16°C° 0 mm 3 mps 669 mmHg 58%
    21:00 +16°C° 0 mm 3 mps 669 mmHg 63%
    22:00 +15°C° 0 mm 2 mps 669 mmHg 67%
    23:00 +15°C° 0 mm 2 mps 669 mmHg 70%

    24 October, Tuesday

    Time Temperature Precipitation Wind Pressure Humidity
    00:00 +14°C° 0 mm 1 mps 669 mmHg 74%
    01:00 +14°C° 0 mm 1 mps 669 mmHg 76%
    02:00 +13°C° 0 mm 1 mps 668 mmHg 78%
    03:00 +13°C° 0 mm 1 mps 668 mmHg 80%
    04:00 +12°C° 0 mm 1 mps 668 mmHg 80%
    05:00 +12°C° 0 mm 1 mps 668 mmHg 80%
    06:00 +12°C° 0 mm 1 mps 668 mmHg 81%
    07:00 +13°C° 0 mm 1 mps 668 mmHg 71%
    08:00 +15°C° 0 mm 1 mps 669 mmHg 62%
    09:00 +16°C° 0 mm 1 mps 670 mmHg 52%
    10:00 +18°C° 0 mm 1 mps 670 mmHg 45%
    11:00 +19°C° 0 mm 1 mps 670 mmHg 38%
    12:00 +21°C° 0 mm 1 mps 670 mmHg 32%
    13:00 +21°C° 0 mm 1 mps 669 mmHg 30%
    14:00 +21°C° 0 mm 2 mps 669 mmHg 28%
    15:00 +21°C° 0 mm 2 mps 669 mmHg 26%
    16:00 +20°C° 0 mm 2 mps 669 mmHg 29%
    17:00 +19°C° 0 mm 2 mps 668 mmHg 32%
    18:00 +19°C° 0 mm 2 mps 668 mmHg 35%
    19:00 +18°C° 0 mm 2 mps 668 mmHg 38%
    20:00 +18°C° 0 mm 1 mps 668 mmHg 40%
    21:00 +16°C° 0 mm 1 mps 668 mmHg 43%
    22:00 +15°C° 0 mm 0 mps 668 mmHg 44%
    23:00 +14°C° 0 mm 0 mps 668 mmHg 45%

    25 October, Wednesday

    Time Temperature Precipitation Wind Pressure Humidity
    00:00 +14°C° 0 mm 0 mps 668 mmHg 46%
    01:00 +13°C° 0 mm 0 mps 667 mmHg 46%
    02:00 +13°C° 0 mm 0 mps 667 mmHg 47%
    03:00 +14°C° 0 mm 1 mps 667 mmHg 47%
    04:00 +14°C° 0 mm 1 mps 667 mmHg 48%
    05:00 +13°C° 0 mm 1 mps 667 mmHg 48%
    06:00 +13°C° 0 mm 1 mps 667 mmHg 49%
    07:00 +15°C° 0 mm 1 mps 668 mmHg 43%
    08:00 +18°C° 0 mm 1 mps 668 mmHg 37%
    09:00 +20°C° 0 mm 1 mps 669 mmHg 31%
    10:00 +21°C° 0 mm 1 mps 669 mmHg 28%
    11:00 +22°C° 0 mm 1 mps 669 mmHg 25%
    12:00 +23°C° 0 mm 2 mps 669 mmHg 22%
    13:00 +24°C° 0 mm 2 mps 669 mmHg 22%
    14:00 +24°C° 0 mm 2 mps 669 mmHg 21%
    15:00 +24°C° 0 mm 2 mps 669 mmHg 20%
    16:00 +23°C° 0 mm 2 mps 669 mmHg 23%
    17:00 +21°C° 0 mm 2 mps 669 mmHg 25%
    18:00 +20°C° 0 mm 2 mps 669 mmHg 28%
    19:00 +20°C° 0 mm 1 mps 669 mmHg 29%
    20:00 +19°C° 0 mm 1 mps 669 mmHg 31%
    21:00 +18°C° 0 mm 1 mps 669 mmHg 33%
    22:00 +18°C° 0 mm 1 mps 669 mmHg 33%
    23:00 +16°C° 0 mm 1 mps 669 mmHg 34%
    Show more